User: anonymous   Login
Location: Niverville
(49.6028°N, 97.0419°W)
Time: 05:05:56
(UTC-05:00)
Language:

Cosmos 2237 Rocket - Orbit

View from above orbital plane
View from above orbital plane
View from above satellite
View from above satellite

Ground track
Ground track

The orbit data is extracted from the following two-line orbital elements,

1 22566U 93016B   16119.22370767  .00000067  00000-0  59246-4 0  9995
2 22566  71.0091 217.9397 0008925  34.3947 325.7751 14.14929406192577
Epoch (UTC): 28 April 2016 05:22:08
Eccentricity: 0.0008925
inclination: 71.0091°
perigee height: 836 km
apogee height: 849 km
right ascension of ascending node: 217.9397°
argument of perigee: 34.3947°
revolutions per day: 14.14929406
mean anomaly at epoch: 325.7751°
orbit number at epoch: 19257

The dashed part of the orbit path shows where the satellite is in the earth's shadow,  

DLR